COSMOS 1809

导读 | 星芒AI

COSMOS 1809 是苏联于1986年发射的一颗军事侦察卫星,主要用于电子情报收集和监视任务。该卫星属于“Tsel-3”系列,运行在近地轨道,具备先进的信号侦测和数据传输能力。COSMOS 1809 在冷战后期发挥了重要作用,帮助苏联获取西方国家的通信和雷达信号信息。尽管其具体任务细节未完全公开,但其存在反映了当时美苏之间在太空领域的激烈竞争。该卫星最终在任务结束后再入大气层销毁。

基本信息
目录编号:
17241
目录名称:
COSMOS 1809
国际标识:
1986-101A
轨道中心:
EARTH
卫星名称:
COSMOS 1809
卫星全名:
--
卫星状态:
在轨 (已飞行14195 天)
发射日期:
1986-12-18 UTC
国别 :
俄罗斯(独联体) (CIS)
星等 :
--
轨道信息
数据来源 国际轨道数据
星历时间: 2025-10-28T20:24:47+0800
19小时前
查看轨道信息
半长轴: 7326.248km
偏心率: 0.0016621
轨道倾角: 82.526°
近地点辐角 91.351°
升交点赤经 105.192°
平近点角 331.112°
近地点: 935.936km
远地点: 960.29km
周期: 104.012分钟
每日圈数: 13.844598
详细信息
使用方式:
暂无
2D轨道图
3D轨道图
轨道高度分析图
轨道倾角分析图
轨道综合分析图
查看轨道综合分析图